Weather in Oyusardakh

Russia / Sakha (Yakutia) Republic     68°16′36″N   154°42′31″E
temp.,
°C
wind,
m/s
gust,
m/s
humid.,
%
clouds,
%
prec.,
mm/h
press.,
hPa
HPBL,
m
13 april, tue
tue1323:00−27s229921 0.0 10259
02:00−30ssw2210061 0.0 10249
05:00−31ssw2210063 0.0 10249
08:00−24s339832 0.0 102369
11:00−18s338221 0.0 1023217
14:00−15s33745 0.0 1021311
17:00−14s33775 0.0 1021235
20:00−21sse33945 0.0 10219
14 april, wed
wed1423:00−25sse2210054 0.0 10229
02:00−27se2210085 0.0 10219
05:00−29se2210043 0.0 10229
08:00−22se239625 0.0 102257
11:00−16ese338432 0.0 1021167
14:00−11ese34755 0.0 1020347
17:00−10ese358041 0.0 1020382
20:00−17ese33946 0.0 101910
15 april, thu
thu1523:00−21e441005 0.0 101918
02:00−24e331007 0.0 101712
05:00−26e3310018 0.0 101610
08:00−20ese34935 0.0 101565
11:00−13e34795 0.0 1013179
14:00−8ese4672100 0.0 1010530
17:00−7se3575100 0.0 1009436
20:00−10s2287100 0.0 100810
16 april, fri
fri1623:00−12s1189100 0.0 10079
02:00−14ssw3393100 0.0 100627
05:00−13sw349399 0.0 100742
08:00−11sw469383 0.0 1007229
11:00−8sw6782100 0.1 1008839
14:00−8wsw5680100 0.1 1009849
17:00−8w5682100 0.3 1010690
20:00−14w22929 0.0 10129
17 april, sat
sat1723:00−18s3310098 0.0 10139
02:00−19ssw449934 0.0 101326
05:00−21ssw4410068 0.0 101422
08:00−16ssw359430 0.0 101392
11:00−10s348218 0.0 1012231
14:00−7sse44795 0.0 1011314
17:00−5sse46845 0.0 1010305
20:00−10sse459213 0.0 100936